Location: Gouy
(50.0008°N, 3.2556°E)
Time: 13:05:06
(UTC+00:00)

Aureole 3 - Pass Details

Date: 23 May 2024
Orbit: 378 x 1127 km, 82.5° (Epoch: 18 June)

Event Time Altitude Azimuth Distance (km) Brightness Sun altitude
Exits shadow 01:10:20 38° 257° (WSW) 597 3.2 -16.8°
Maximum altitude 01:10:47 42° 284° (WNW) 561 3.3 -16.8°
Drops below altitude 10° 01:13:40 10° 357° (N) 1,427 6.5 -16.6°
Sets 01:15:47 0° 5° (N) 2,329 8.0 -16.5°
